White Rock, British Columbia

9:10 AM PDT on April 21, 2018 (GMT -0700)
White Rock

Weather History for CWWK - March, 2014

Change the Weather History Date:

Thursday, March 6, 2014

  Actual Average Record
Temperature  
Mean Temperature 48 °F -  
Max Temperature 53 °F - - ()
Min Temperature 42 °F - - ()
Degree Days  
Heating Degree Days 18    
Moisture  
Dew Point 45 °F    
Average Humidity 83    
Maximum Humidity 92    
Minimum Humidity 69    
Precipitation  
Precipitation 0.16 in - - ()
Sea Level Pressure  
Sea Level Pressure 29.65 in    
Wind  
Wind Speed 5 mph ()    
Max Wind Speed 13 mph    
Max Gust Speed 23 mph    
T = Trace of Precipitation, MM = Missing Value Source: Averaged Metar Reports

Daily Weather History Graph

Daily Weather History Graph

Search for Another Location

Airport or City:

Astronomy

Mar. 06, 2014 Rise Set
Actual Time 6:42 AM PST 6:02 PM PST
Civil Twilight 6:11 AM PST 6:34 PM PST
Nautical Twilight 5:34 AM PST 7:10 PM PST
Astronomical Twilight 4:57 AM PST 7:48 PM PST
Moon 9:25 AM PST (3/6) No Moon Set
Length of Visible Light 12h 22m
Length of Day
11h 19m
Waxing Crescent, 33% of the Moon is Illuminated
Mar 6
Waxing Crescent
Mar 8
First Quarter
Mar 16
Full
Mar 23
Last Quarter
Mar 30
New

Hourly Weather History & Observations

Time (PST) Temp. Windchill Dew Point Humidity Pressure Visibility Wind Dir Wind Speed Gust Speed Precip Events Conditions
12:00 AM 46.0 °F 44.8 °F 43.3 °F 90% 29.42 in - NE 3.5 mph - 0.01 in   Unknown
1:00 AM 48.0 °F - 45.7 °F 92% 29.44 in - NE 2.3 mph - 0.03 in   Unknown
2:00 AM 50.2 °F - 47.8 °F 92% 29.46 in - South 6.9 mph - 0.04 in   Unknown
3:00 AM 49.8 °F - 47.1 °F 90% 29.47 in - SSE 4.6 mph - 0.04 in   Unknown
4:00 AM 50 °F - 46 °F 83% 29.49 in - SSE 5.8 mph - -  
4:00 AM 50.0 °F - 46.4 °F 87% 29.49 in - SSE 5.8 mph - N/A   Unknown
5:00 AM 50.7 °F - 46.8 °F 86% 29.48 in - SE 4.6 mph - N/A   Unknown
6:00 AM 51.3 °F - 46.6 °F 84% 29.47 in - SSE 5.8 mph - N/A   Unknown
7:00 AM 49.6 °F - 46.0 °F 87% 29.49 in - SSE 12.7 mph 23.0 mph 0.09 in   Unknown
8:00 AM 50.2 °F - 45.9 °F 85% 29.50 in - SSE 9.2 mph - 0.05 in   Unknown
9:00 AM 50.7 °F - 45.7 °F 83% 29.52 in - SSE 9.2 mph 17.3 mph 0.03 in   Unknown
10:00 AM 52 °F - 45 °F 69% 29.54 in - SSE 11.5 mph - -  
10:00 AM 52.0 °F - 45.0 °F 77% 29.54 in - SSE 11.5 mph 19.6 mph N/A   Unknown
11:00 AM 53.2 °F - 45.0 °F 73% 29.57 in - SSE 9.2 mph - N/A   Unknown
12:00 PM 53.2 °F - 45.7 °F 76% 29.59 in - SSE 8.1 mph 19.6 mph N/A   Unknown
1:00 PM 52.3 °F - 46.2 °F 80% 29.62 in - South 8.1 mph - 0.01 in   Unknown
2:00 PM 50.5 °F - 46.8 °F 87% 29.65 in - South 4.6 mph - 0.03 in   Unknown
3:00 PM 49.5 °F - 45.5 °F 86% 29.68 in - SSW 3.5 mph - 0.03 in   Unknown
4:00 PM 50 °F - 45 °F 75% 29.73 in - South 3.5 mph - -  
4:00 PM 49.6 °F - 44.6 °F 83% 29.73 in - South 3.5 mph - 0.01 in   Unknown
5:00 PM 48.9 °F - 41.9 °F 77% 29.78 in - SSE 2.3 mph - N/A   Unknown
6:00 PM 48.4 °F - 41.9 °F 78% 29.83 in - SSW 3.5 mph - 0.02 in   Unknown
7:00 PM 48.4 °F - 44.2 °F 86% 29.88 in - South 2.3 mph - 0.03 in   Unknown
8:00 PM 48.7 °F - 44.8 °F 86% 29.92 in - South 5.8 mph - 0.03 in   Unknown
9:00 PM 48.4 °F - 44.2 °F 86% 29.94 in - SSE 4.6 mph - 0.01 in   Unknown
10:00 PM 49 °F - 44 °F 79% 29.98 in - South 4.6 mph - -  
10:00 PM 48.6 °F - 44.4 °F 86% 29.98 in - South 4.6 mph - N/A   Unknown
11:00 PM 47.3 °F - 44.4 °F 90% 30.01 in - South 5.8 mph - N/A   Unknown